Location: Peebles
(55.6412°N, 3.1714°W)
Time: 06:04:19
(UTC+01:00)

deb Agena D - Pass Details

Date: 03 July 2022
Orbit: 797 x 980 km, 99.8° (Epoch: 16 August)

Event Time Altitude Azimuth Distance (km) Brightness Sun altitude
Rises 00:07:50 0° 15° (NNE) 3,364 10.4 -10.0°
Reaches altitude 10° 00:10:19 10° 6° (N) 2,448 9.8 -10.1°
Maximum altitude 00:15:07 34° 304° (NW) 1,387 7.9 -10.3°
Drops below altitude 10° 00:20:04 10° 242° (WSW) 2,535 8.5 -10.5°
Sets 00:22:42 0° 233° (SW) 3,501 9.2 -10.5°
